Hourly Data Report for October 27, 2016

All times are specified in Local Standard Time (LST). Add 1 hour to adjust for Daylight Saving Time where and when it is observed.

PANGNIRTUNG
NUNAVUT

66°08'36.300" N
65°42'40.500" W
22.60 m
2403049
71826
WXP

Download Data

Hourly Data (October 2016)
Hourly Data Report for October 27, 2016
Temp Definition
°C
Dew Point Temp Definition
°C
Rel Hum Definition
%
Wind Dir Definition
10's deg

Wind Spd Definition
km/h
Visibility Definition
km
Stn Press Definition
kPa
Hmdx Definition


Wind Chill Definition


Weather Definition


TIME
00:00 -8.5 -12.0 76 4 10   101.02   -13 LegendNANA
01:00 -8.7 -11.7 79 11 7   101.03   -13 LegendNANA
02:00 -8.1 -10.5 83 13 7   101.05   -12 LegendNANA
03:00 -9.1 -11.4 84 24 3   101.05   -11 LegendNANA
04:00 -8.0 -10.1 85 8 8   101.02   -12 LegendNANA
05:00 -7.6 -9.3 88 7 6   101.00   -11 LegendNANA
06:00 -7.5 -8.7 91 12 8   100.99   -12 LegendNANA
07:00 -7.5 -8.7 91 8 7   100.96   -11 LegendNANA
08:00 -7.2 -8.5 90 11 8   100.92   -11 LegendNANA
09:00 -6.7 -8.1 89 10 7   100.87   -10 LegendNANA
10:00 -6.1 -7.7 89 9 8   100.83   -10 LegendNANA
11:00 -5.8 -7.4 89 8 8   100.77   -10 LegendNANA
12:00 -5.9 -6.7 94 6 10   100.70   -10 LegendNANA
13:00 -5.4 -6.5 92 6 10   100.68   -10 LegendNANA
14:00 -5.3 -6.2 93 8 11   100.65   -10 LegendNANA
15:00 -5.2 -5.8 96 9 8   100.64   -9 LegendNANA
16:00 -5.3 -5.7 97 23 4   100.68   -7 LegendNANA
17:00 -4.4 -6.5 85 25 20   100.74   -11 LegendNANA
18:00 -4.9 -9.3 71 24 19   100.83   -11 LegendNANA
19:00 -5.7 -11.1 66 26 3   100.84   -7 LegendNANA
20:00 -5.9 -10.3 71 17 3   100.82   -7 LegendNANA
21:00 -5.8 -10.7 68 13 2   100.82   -7 LegendNANA
22:00 -6.9 -11.6 69 21 5   100.80   -9 LegendNANA
23:00 -9.0 -13.6 69 12 16   100.80   -16 LegendNANA

Notes on Data Quality.

Legend

  • E = Estimated
  • M = Missing
  • NA = Not Available
  • ‡ = Partner data that is not subject to review by the National Climate Archives
Date modified: